TimeCST,TemperatureF,Dew PointF,Humidity,Sea Level PressureIn,VisibilityMPH,Wind Direction,Wind SpeedMPH,Gust SpeedMPH,PrecipitationIn,Events,Conditions,WindDirDegrees,DateUTC
12:54 AM,39.9,30.9,70,30.16,10.0,West,5.8,-,N/A,,Clear,280,2012-11-07 06:54:00
1:54 AM,39.9,30.9,70,30.16,10.0,WNW,5.8,-,N/A,,Clear,290,2012-11-07 07:54:00
2:54 AM,42.1,32.0,67,30.14,10.0,West,3.5,-,N/A,,Clear,280,2012-11-07 08:54:00
3:54 AM,39.9,30.9,70,30.14,10.0,WSW,4.6,-,N/A,,Clear,250,2012-11-07 09:54:00
4:54 AM,39.0,30.9,73,30.14,10.0,Calm,Calm,-,N/A,,Clear,0,2012-11-07 10:54:00
5:54 AM,35.6,30.2,81,30.15,10.0,South,5.8,-,N/A,,Clear,180,2012-11-07 11:54:00
6:54 AM,35.1,28.9,78,30.15,10.0,ESE,6.9,-,N/A,,Clear,120,2012-11-07 12:54:00
7:54 AM,37.9,32.0,79,30.14,10.0,SE,6.9,-,N/A,,Clear,130,2012-11-07 13:54:00
8:54 AM,48.0,35.1,61,30.13,10.0,SE,10.4,-,N/A,,Clear,140,2012-11-07 14:54:00
9:54 AM,55.0,37.0,51,30.10,10.0,SSE,11.5,-,N/A,,Clear,160,2012-11-07 15:54:00
10:54 AM,61.0,37.0,41,30.08,10.0,South,15.0,-,N/A,,Clear,170,2012-11-07 16:54:00
11:54 AM,64.9,36.0,34,30.05,10.0,South,15.0,20.7,N/A,,Clear,180,2012-11-07 17:54:00
12:54 PM,69.1,36.0,30,29.99,10.0,South,15.0,20.7,N/A,,Clear,180,2012-11-07 18:54:00
1:54 PM,69.1,36.0,30,29.96,10.0,South,16.1,-,N/A,,Clear,170,2012-11-07 19:54:00
2:54 PM,72.0,35.1,26,29.93,10.0,South,17.3,23.0,N/A,,Clear,170,2012-11-07 20:54:00
3:54 PM,73.0,34.0,24,29.91,10.0,South,16.1,-,N/A,,Clear,180,2012-11-07 21:54:00
4:54 PM,71.1,34.0,26,29.91,10.0,SSE,8.1,-,N/A,,Clear,160,2012-11-07 22:54:00
5:54 PM,61.0,34.0,36,29.92,10.0,ESE,9.2,-,N/A,,Clear,120,2012-11-07 23:54:00
6:54 PM,57.9,35.1,42,29.93,10.0,SE,12.7,-,N/A,,Clear,130,2012-11-08 00:54:00
7:54 PM,55.9,34.0,44,29.93,10.0,SE,12.7,-,N/A,,Clear,130,2012-11-08 01:54:00
8:54 PM,55.0,34.0,45,29.90,10.0,SE,13.8,-,N/A,,Clear,140,2012-11-08 02:54:00
9:54 PM,53.1,33.1,47,29.89,10.0,SE,11.5,-,N/A,,Clear,140,2012-11-08 03:54:00
10:54 PM,51.1,33.1,50,29.88,10.0,SSE,13.8,-,N/A,,Clear,150,2012-11-08 04:54:00
11:54 PM,48.9,33.1,54,29.85,10.0,SSE,13.8,-,N/A,,Clear,150,2012-11-08 05:54:00